EDT,Max TemperatureF,Mean TemperatureF,Min TemperatureF,Max Dew PointF,MeanDew PointF,Min DewpointF,Max Humidity, Mean Humidity, Min Humidity, Max Sea Level PressureIn, Mean Sea Level PressureIn, Min Sea Level PressureIn, Max VisibilityMiles, Mean VisibilityMiles, Min VisibilityMiles, Max Wind SpeedMPH, Mean Wind SpeedMPH, Max Gust SpeedMPH,PrecipitationIn, CloudCover, Events, WindDirDegrees
2013-6-1,89,75,61,67,63,59,93,68,43,29.97,29.91,29.84,10,10,7,15,4,22,0.00,0,,200
2013-6-2,87,77,66,70,66,64,90,71,51,29.83,29.78,29.68,10,8,0,28,5,45,1.48,6,Fog-Rain-Thunderstorm,202
2013-6-3,67,58,49,64,54,37,100,76,52,29.92,29.86,29.81,10,8,1,16,5,21,0.01,4,,243
2013-6-4,70,57,44,45,42,38,83,60,37,30.13,30.00,29.93,10,10,10,17,6,24,0.00,1,,289
2013-6-5,71,58,44,51,44,37,93,61,29,30.21,30.15,30.11,10,10,10,12,2,15,0.00,0,,189
2013-6-6,72,61,49,53,47,42,86,62,38,30.16,30.10,30.04,10,9,5,20,7,28,0.28,3,Rain,138
2013-6-7,57,55,53,52,50,47,93,83,72,30.02,29.95,29.81,10,7,1,17,7,26,0.74,8,Rain,113
2013-6-8,66,60,53,58,54,50,93,83,73,30.05,29.84,29.73,10,8,3,13,5,18,0.30,8,Rain,246
2013-6-9,74,64,54,56,54,53,93,71,49,30.19,30.14,30.06,10,10,10,12,3,17,0.00,5,,226
2013-6-10,71,61,50,60,55,48,93,73,53,30.20,30.09,29.89,10,8,2,18,3,25,0.47,5,Rain,117
2013-6-11,67,62,57,61,57,52,93,83,73,29.85,29.66,29.57,10,6,1,17,7,29,1.00,8,Rain,133
2013-6-12,69,60,50,54,51,48,93,71,49,29.86,29.76,29.63,10,10,5,23,7,31,0.01,6,,307
2013-6-13,60,53,46,54,51,45,93,82,71,29.85,29.74,29.68,10,6,2,13,2,18,1.00,7,Rain,99
2013-6-14,75,63,51,55,51,43,96,65,33,29.87,29.75,29.69,10,10,7,16,3,24,0.02,5,Rain,284
2013-6-15,74,60,45,53,46,44,93,66,38,29.99,29.94,29.87,10,7,1,14,4,21,0.00,0,,257
2013-6-16,72,59,46,61,54,44,93,71,49,29.97,29.84,29.73,10,9,2,18,3,26,0.05,4,Rain,189
2013-6-17,80,68,55,63,58,54,100,75,49,29.92,29.85,29.81,10,7,1,16,3,25,0.06,2,Rain-Thunderstorm,240
2013-6-18,66,57,48,61,55,48,100,84,67,29.97,29.93,29.90,10,6,0,9,2,21,0.01,7,Fog-Rain,341
2013-6-19,69,58,46,48,44,32,100,63,25,30.19,30.04,29.97,10,7,0,13,3,18,0.00,1,Fog,322
2013-6-20,76,59,41,56,46,39,93,62,31,30.28,30.23,30.19,10,10,10,10,2,15,0.00,0,,235
2013-6-21,81,66,50,56,51,46,96,64,32,30.27,30.24,30.22,10,10,8,8,2,35,0.00,0,,271
2013-6-22,83,69,54,63,59,53,93,70,46,30.22,30.16,30.09,10,10,7,13,2,17,0.00,2,,207
2013-6-23,89,78,66,69,65,61,90,70,50,30.13,30.06,29.98,10,10,6,16,4,22,0.01,3,Thunderstorm,217
2013-6-24,88,76,63,70,65,61,93,74,55,30.05,30.01,29.93,10,6,1,22,2,30,0.52,3,Rain-Thunderstorm,243
2013-6-25,87,73,59,70,65,57,97,74,51,30.01,29.89,29.77,10,5,0,12,2,21,0.14,4,Fog-Rain-Thunderstorm,203
2013-6-26,77,70,63,68,66,63,93,81,69,29.83,29.81,29.76,10,6,0,9,3,23,0.12,6,Fog-Rain,214
2013-6-27,84,72,59,71,63,57,100,76,51,29.84,29.79,29.65,10,4,0,16,2,23,0.24,4,Fog-Rain,189
2013-6-28,80,73,66,68,65,62,93,76,58,29.66,29.50,29.44,10,8,1,22,7,29,0.69,7,Rain-Thunderstorm,159
2013-6-29,82,73,64,65,64,60,100,76,51,29.69,29.56,29.49,10,7,0,16,3,22,0.01,5,Fog-Rain,205
2013-6-30,85,73,60,72,64,59,93,76,58,29.92,29.81,29.71,10,5,0,12,2,23,0.13,4,Fog-Rain-Thunderstorm,151